User: anonymous   Login
Location: D�derode
(51.8092°N, 10.1065°E)
Time: 11:09:41
(UTC+00:00)
Language:

USA 238 - Orbit

View from above orbital plane
View from above orbital plane
View from above satellite
View from above satellite

Ground track
Ground track

The orbit data is extracted from the following two-line orbital elements,

1 38758U 12048A   21061.99368616 0.00000000  00000-0  00000-0 0    07
2 38758  63.4438  93.2143 0146870 359.4674   0.5326 13.40817248    01
Epoch (UTC): 02 March 2021 23:50:54
Eccentricity: 0.0146870
inclination: 63.4438°
perigee height: 996 km
apogee height: 1216 km
right ascension of ascending node: 93.2143°
argument of perigee: 359.4674°
revolutions per day: 13.40817248
mean anomaly at epoch: 0.5326°
orbit number at epoch: 0

The dashed part of the orbit path shows where the satellite is in the earth's shadow,  

DLR